EW6246 Weather Reports


Display with metric or nautical units.
time (UTC)temp
F
wind
direction
speed
MPH
gust
MPH
rain 1hr
in
rain 24hr
in
rain mn
in
humidity
%
barometer
mb
20260507042842 65 311 0.0 0.0 0.00 0.00 0.00 93 1020.4
20260507042338 65 308 0.0 0.0 0.00 0.00 0.00 94 1020.6
20260507041835 65 309 0.0 0.0 0.00 0.00 0.00 94 1020.5
20260507041332 65 309 0.0 0.0 0.00 0.00 0.00 94 1020.3
20260507040829 65 298 0.0 0.0 0.00 0.00 0.00 94 1020.6
20260507040325 65 314 0.0 0.0 0.00 0.00 0.00 94 1020.4
20260507035821 65 306 0.0 0.0 0.00 0.00 0.00 94 1020.6
20260507035316 65 306 0.0 0.0 0.00 0.00 0.00 94 1020.6
20260507034814 65 309 0.0 0.0 0.00 0.00 0.00 94 1020.5
20260507034311 65 298 0.0 0.0 0.00 0.00 0.00 94 1020.7
20260507033809 65 303 0.0 0.0 0.00 0.00 0.00 94 1020.8
20260507033307 65 306 0.0 0.0 0.00 0.00 0.00 95 1020.7
20260507032803 65 304 0.0 0.0 0.00 0.00 0.00 94 1021.0
20260507032259 65 298 0.0 0.0 0.00 0.00 0.00 94 1020.7
20260507031756 66 299 0.0 0.0 0.00 0.00 0.00 94 1020.8
20260507031253 66 297 0.0 0.0 0.00 0.00 0.00 94 1021.0
20260507030749 66 300 0.0 0.0 0.00 0.00 0.00 94 1021.0
20260507030247 66 302 0.0 0.0 0.00 0.00 0.00 94 1020.8
20260507025744 66 304 0.0 0.0 0.00 0.00 0.00 94 1020.8
20260507025241 66 307 0.0 0.0 0.00 0.00 0.00 94 1021.0
20260507024739 66 302 0.0 0.0 0.00 0.00 0.00 94 1021.0
20260507024236 66 304 0.0 0.0 0.00 0.00 0.00 94 1020.8
20260507023732 66 304 0.0 0.0 0.00 0.00 0.00 94 1021.0
20260507023229 66 308 0.0 0.0 0.00 0.00 0.00 94 1021.0
20260507022726 66 302 0.0 0.0 0.00 0.00 0.00 94 1020.7
20260507022222 66 314 0.0 0.0 0.00 0.00 0.00 94 1020.7
20260507021719 66 302 0.0 0.0 0.00 0.00 0.00 94 1020.6
20260507021214 66 314 0.0 0.0 0.00 0.00 0.00 94 1020.4
20260507020713 67 302 0.0 0.0 0.00 0.00 0.00 94 1020.5
20260507020208 67 304 0.0 0.0 0.00 0.00 0.00 94 1020.4
20260507015707 67 305 0.0 0.0 0.00 0.00 0.00 94 1020.3
20260507015204 67 296 0.0 0.0 0.00 0.00 0.00 94 1020.5
20260507014700 67 302 0.0 0.0 0.00 0.00 0.00 93 1020.4
20260507014156 67 300 0.0 0.0 0.00 0.00 0.00 93 1020.2
20260507013653 68 297 0.0 0.0 0.00 0.00 0.00 93 1020.2
20260507013150 68 302 0.0 0.0 0.00 0.00 0.00 92 1020.4
20260507012648 68 302 0.0 0.0 0.00 0.00 0.00 92 1020.3
20260507012143 68 309 0.0 0.0 0.00 0.00 0.00 92 1020.2
20260507011641 68 309 0.0 0.0 0.00 0.00 0.00 92 1020.1
20260507011137 68 306 0.0 0.0 0.00 0.00 0.00 92 1019.9
20260507010632 68 302 0.0 0.0 0.00 0.00 0.00 92 1020.1
20260507010128 68 299 0.0 0.0 0.00 0.00 0.00 93 1019.9
20260507005626 68 304 0.0 1.0 0.00 0.00 0.00 92 1020.1
20260507005122 68 304 0.0 1.0 0.00 0.00 0.00 92 1019.8
20260507004619 68 298 0.0 0.0 0.00 0.00 0.00 93 1019.7
20260507004116 68 313 1.0 1.0 0.00 0.00 0.00 93 1019.9
20260507003612 69 297 0.0 0.0 0.00 0.00 0.00 92 1019.7
20260507003107 69 301 1.0 1.0 0.00 0.00 0.00 92 1019.8
20260507002604 69 312 0.0 0.0 0.00 0.00 0.00 91 1019.9
20260507002100 70 297 0.0 0.0 0.00 0.00 0.00 91 1019.8
20260507001557 70 295 0.0 0.0 0.00 0.00 0.00 90 1019.6
20260507001054 71 294 0.0 0.0 0.00 0.00 0.00 88 1019.5
20260507000550 71 292 0.0 0.0 0.00 0.00 0.00 87 1019.6
20260507000046 72 254 2.0 2.0 0.00 0.00 0.00 84 1019.5
20260506235544 72 277 2.0 3.0 0.00 0.00 0.00 84 1019.3
20260506235039 72 297 1.0 1.0 0.00 0.00 0.00 84 1019.3
20260506234536 72 304 0.0 1.0 0.00 0.00 0.00 85 1019.2
20260506234033 72 61 1.0 2.0 0.00 0.00 0.00 86 1019.3
20260506233530 72 318 0.0 1.0 0.00 0.00 0.00 85 1019.2
20260506233021 72 312 3.0 6.0 0.00 0.00 0.00 84 1019.1
20260506232517 72 246 2.0 2.0 0.00 0.00 0.00 85 1019.3
20260506232013 72 279 1.0 2.0 0.00 0.00 0.00 85 1019.1
20260506231511 73 327 2.0 2.0 0.00 0.00 0.00 84 1019.0
20260506231008 73 268 1.0 2.0 0.00 0.00 0.00 84 1018.9
20260506230504 73 264 1.0 1.0 0.00 0.00 0.00 84 1018.5
20260506225956 73 288 2.0 3.0 0.00 0.00 0.00 85 1018.5
20260506225453 73 281 1.0 1.0 0.00 0.00 0.00 86 1018.5
20260506224949 73 278 2.0 3.0 0.00 0.00 0.00 84 1018.6
20260506224446 73 260 1.0 1.0 0.00 0.00 0.00 85 1018.7
20260506223943 74 258 1.0 1.0 0.00 0.00 0.00 86 1018.4
20260506223439 74 278 2.0 3.0 0.00 0.00 0.00 86 1018.5
20260506222936 74 261 3.0 3.0 0.00 0.00 0.00 85 1018.6
20260506222432 75 270 1.0 2.0 0.00 0.00 0.00 86 1018.5
20260506221929 75 258 1.0 2.0 0.00 0.00 0.00 83 1018.5
20260506221426 75 258 3.0 6.0 0.00 0.00 0.00 83 1018.4
20260506220924 75 258 2.0 2.0 0.00 0.00 0.00 85 1018.4
20260506220419 76 258 3.0 5.0 0.00 0.00 0.00 85 1018.2
20260506215916 76 258 1.0 1.0 0.00 0.00 0.00 84 1018.4
20260506215412 76 258 3.0 5.0 0.00 0.00 0.00 83 1018.5
20260506214908 77 258 1.0 2.0 0.00 0.00 0.00 83 1018.4
20260506214405 77 258 1.0 2.0 0.00 0.00 0.00 81 1018.3
20260506213903 78 258 3.0 3.0 0.00 0.00 0.00 80 1018.5
20260506213400 78 258 2.0 2.0 0.00 0.00 0.00 78 1018.2
20260506212858 79 258 2.0 2.0 0.00 0.00 0.00 78 1018.3
20260506212353 79 258 1.0 2.0 0.00 0.00 0.00 76 1018.2
20260506211848 78 258 3.0 5.0 0.00 0.00 0.00 77 1018.2
20260506211345 79 258 1.0 2.0 0.00 0.00 0.00 77 1018.1
20260506210842 78 258 1.0 2.0 0.00 0.00 0.00 77 1018.2
20260506210339 80 258 4.0 5.0 0.00 0.00 0.00 75 1018.4
20260506205836 79 258 4.0 5.0 0.00 0.00 0.00 76 1018.3
20260506205332 80 258 2.0 2.0 0.00 0.00 0.00 74 1018.2
20260506204828 81 258 1.0 2.0 0.00 0.00 0.00 72 1018.2
20260506204326 81 258 1.0 1.0 0.00 0.00 0.00 72 1018.1
20260506203824 81 258 4.0 5.0 0.00 0.00 0.00 72 1018.1
20260506203321 82 258 1.0 1.0 0.00 0.00 0.00 72 1018.1
20260506202817 81 258 1.0 2.0 0.00 0.00 0.00 71 1018.0
20260506202315 81 258 3.0 3.0 0.00 0.00 0.00 71 1017.9
20260506201811 81 258 1.0 1.0 0.00 0.00 0.00 72 1018.0
20260506201309 80 258 4.0 6.0 0.00 0.00 0.00 71 1018.1
20260506200805 81 263 3.0 5.0 0.00 0.00 0.00 73 1018.0
20260506200301 80 258 2.0 2.0 0.00 0.00 0.00 72 1018.2
20260506195758 81 272 1.0 1.0 0.00 0.00 0.00 74 1018.3
20260506195255 82 262 3.0 5.0 0.00 0.00 0.00 72 1018.1
20260506194752 81 258 3.0 5.0 0.00 0.00 0.00 73 1018.4
20260506194248 80 258 2.0 2.0 0.00 0.00 0.00 74 1018.5
20260506193746 80 258 1.0 1.0 0.00 0.00 0.00 75 1018.3
20260506193243 80 258 1.0 1.0 0.00 0.00 0.00 73 1018.3
20260506192739 81 258 1.0 1.0 0.00 0.00 0.00 73 1018.3
20260506192236 82 261 1.0 1.0 0.00 0.00 0.00 72 1018.3
20260506191732 82 289 1.0 2.0 0.00 0.00 0.00 69 1018.5
20260506191229 80 258 2.0 2.0 0.00 0.00 0.00 73 1018.5
20260506190726 81 258 1.0 2.0 0.00 0.00 0.00 74 1018.6
20260506190222 79 258 1.0 2.0 0.00 0.00 0.00 75 1018.5
20260506185720 80 258 1.0 2.0 0.00 0.00 0.00 74 1018.9
20260506185216 79 258 3.0 5.0 0.00 0.00 0.00 75 1018.7
20260506184714 81 258 2.0 2.0 0.00 0.00 0.00 72 1018.9
20260506184211 79 258 1.0 1.0 0.00 0.00 0.00 74 1018.7
20260506183707 80 258 4.0 5.0 0.00 0.00 0.00 73 1018.9
20260506183203 80 269 2.0 2.0 0.00 0.00 0.00 75 1018.9
20260506182701 81 259 1.0 1.0 0.00 0.00 0.00 73 1018.7
20260506182157 78 258 1.0 2.0 0.00 0.00 0.00 77 1019.1
20260506181655 79 258 2.0 2.0 0.00 0.00 0.00 77 1019.1
20260506181152 80 258 2.0 2.0 0.00 0.00 0.00 76 1019.2
20260506180649 78 258 1.0 2.0 0.00 0.00 0.00 78 1019.1
20260506180145 79 258 2.0 2.0 0.00 0.00 0.00 77 1019.2
20260506175642 80 258 3.0 3.0 0.00 0.00 0.00 74 1019.4
20260506175139 79 258 1.0 1.0 0.00 0.00 0.00 77 1019.3
20260506174632 80 258 3.0 6.0 0.00 0.00 0.00 74 1019.6
20260506174128 82 258 2.0 3.0 0.00 0.00 0.00 73 1019.7
20260506173626 82 258 3.0 5.0 0.00 0.00 0.00 73 1019.3
20260506173122 82 258 2.0 3.0 0.00 0.00 0.00 74 1019.5
20260506172620 81 258 3.0 3.0 0.00 0.00 0.00 74 1019.5
20260506172116 81 258 5.0 8.0 0.00 0.00 0.00 74 1019.9
20260506171613 80 258 4.0 5.0 0.00 0.00 0.00 74 1019.8
20260506171110 82 258 1.0 2.0 0.00 0.00 0.00 74 1019.9
20260506170607 82 258 2.0 2.0 0.00 0.00 0.00 72 1020.2
20260506170059 81 258 3.0 3.0 0.00 0.00 0.00 74 1020.0
20260506165558 81 258 2.0 3.0 0.00 0.00 0.00 76 1020.2
20260506165053 81 258 3.0 5.0 0.00 0.00 0.00 75 1020.2
20260506164551 79 258 1.0 2.0 0.00 0.00 0.00 77 1020.1
20260506164048 81 258 2.0 2.0 0.00 0.00 0.00 76 1020.2
20260506163544 82 342 3.0 3.0 0.00 0.00 0.00 74 1020.2
20260506163039 81 258 2.0 2.0 0.00 0.00 0.00 76 1020.4
20260506162535 79 258 3.0 3.0 0.00 0.00 0.00 78 1020.4
20260506162027 80 258 1.0 2.0 0.00 0.00 0.00 76 1020.5
20260506161525 81 259 1.0 2.0 0.00 0.00 0.00 73 1020.5
20260506161022 81 258 1.0 2.0 0.00 0.00 0.00 73 1020.7
20260506160520 80 258 3.0 3.0 0.00 0.00 0.00 75 1020.8
20260506160016 82 258 3.0 3.0 0.00 0.00 0.00 71 1020.6
20260506155514 81 258 1.0 2.0 0.00 0.00 0.00 73 1020.7
20260506153646 81 258 3.0 5.0 0.00 0.00 0.00 72 1020.8
20260506153143 81 258 2.0 3.0 0.00 0.00 0.00 75 1021.0
20260506152640 81 258 3.0 6.0 0.00 0.00 0.00 74 1020.8
20260506152138 82 258 3.0 6.0 0.00 0.00 0.00 71 1020.8
20260506151636 82 258 1.0 1.0 0.00 0.00 0.00 72 1020.7
20260506151132 83 262 1.0 2.0 0.00 0.00 0.00 69 1021.0
20260506150630 82 258 3.0 5.0 0.00 0.00 0.00 69 1021.0
20260506150126 82 258 3.0 3.0 0.00 0.00 0.00 69 1021.1
20260506145623 82 298 1.0 3.0 0.00 0.00 0.00 70 1021.1
20260506145120 80 258 1.0 1.0 0.00 0.00 0.00 73 1021.0
20260506144617 81 293 1.0 2.0 0.00 0.00 0.00 70 1021.2
20260506144114 82 276 1.0 2.0 0.00 0.00 0.00 68 1021.2
20260506143612 82 333 1.0 2.0 0.00 0.00 0.00 72 1021.0
20260506143110 81 278 0.0 1.0 0.00 0.00 0.00 73 1020.8
20260506142608 80 260 1.0 2.0 0.00 0.00 0.00 71 1020.8
20260506142106 81 315 1.0 1.0 0.00 0.00 0.00 68 1020.8
20260506141603 80 299 1.0 1.0 0.00 0.00 0.00 71 1021.1
20260506141101 81 357 0.0 0.0 0.00 0.00 0.00 74 1020.8
20260506140558 81 290 0.0 1.0 0.00 0.00 0.00 70 1021.0
20260506140055 80 265 2.0 2.0 0.00 0.00 0.00 71 1021.0
20260506135552 79 259 1.0 2.0 0.00 0.00 0.00 71 1020.8
20260506135048 80 264 3.0 3.0 0.00 0.00 0.00 67 1020.8
20260506134545 80 300 3.0 6.0 0.00 0.00 0.00 70 1020.6
20260506134041 79 307 3.0 3.0 0.00 0.00 0.00 69 1020.5
20260506133538 80 281 3.0 5.0 0.00 0.00 0.00 67 1020.8
20260506133035 80 119 1.0 1.0 0.00 0.00 0.00 69 1020.7
20260506132532 79 255 2.0 3.0 0.00 0.00 0.00 70 1020.7
20260506132030 79 288 1.0 1.0 0.00 0.00 0.00 70 1020.6
20260506131527 80 311 0.0 1.0 0.00 0.00 0.00 68 1020.6
20260506131023 79 227 1.0 2.0 0.00 0.00 0.00 67 1020.7
20260506130520 78 302 1.0 1.0 0.00 0.00 0.00 70 1020.6
20260506130018 77 185 3.0 5.0 0.00 0.00 0.00 71 1020.5
20260506125516 77 287 1.0 1.0 0.00 0.00 0.00 72 1020.4
20260506125013 77 316 3.0 3.0 0.00 0.00 0.00 70 1020.2
20260506124511 77 342 4.0 7.0 0.00 0.00 0.00 73 1020.1
20260506124009 77 305 1.0 2.0 0.00 0.00 0.00 72 1020.1
20260506123506 78 295 2.0 2.0 0.00 0.00 0.00 73 1020.2
20260506123004 78 289 0.0 1.0 0.00 0.00 0.00 68 1020.3
20260506122500 78 280 0.0 0.0 0.00 0.00 0.00 71 1020.3
20260506121959 77 340 0.0 1.0 0.00 0.00 0.00 73 1020.0
20260506121455 76 266 1.0 1.0 0.00 0.00 0.00 76 1020.1
20260506120952 75 295 0.0 0.0 0.00 0.00 0.00 74 1020.1
20260506120450 75 269 2.0 2.0 0.00 0.00 0.00 75 1020.2
20260506115947 74 284 0.0 1.0 0.00 0.00 0.00 79 1020.1
20260506115445 75 259 1.0 2.0 0.00 0.00 0.00 75 1020.1
20260506114943 75 304 0.0 1.0 0.00 0.00 0.00 76 1020.1
20260506114440 75 285 0.0 1.0 0.00 0.00 0.00 75 1020.0
20260506113939 75 275 1.0 1.0 0.00 0.00 0.00 76 1019.9
20260506113436 74 294 0.0 0.0 0.00 0.00 0.00 76 1019.8
20260506112932 73 259 1.0 1.0 0.00 0.00 0.00 78 1019.8
20260506112430 73 294 0.0 0.0 0.00 0.00 0.00 77 1019.7
20260506111927 73 294 0.0 0.0 0.00 0.00 0.00 78 1019.7
20260506111425 72 283 0.0 0.0 0.00 0.00 0.00 77 1019.7
20260506110922 71 291 0.0 1.0 0.00 0.00 0.00 83 1019.8
20260506110420 70 293 0.0 0.0 0.00 0.00 0.00 84 1019.8
20260506105916 69 293 1.0 1.0 0.00 0.00 0.00 86 1019.6
20260506105413 68 308 0.0 0.0 0.00 0.00 0.00 86 1019.7
20260506104910 67 310 0.0 1.0 0.00 0.00 0.00 86 1019.6
20260506104408 67 295 0.0 0.0 0.00 0.00 0.00 88 1019.5
20260506103905 65 323 1.0 1.0 0.00 0.00 0.00 91 1019.5
20260506103403 64 314 0.0 0.0 0.00 0.00 0.00 91 1019.5
20260506102900 64 289 0.0 1.0 0.00 0.00 0.00 91 1019.4
20260506102358 65 300 0.0 1.0 0.00 0.00 0.00 91 1019.3
20260506101854 64 299 1.0 1.0 0.00 0.00 0.00 91 1019.4
20260506101351 64 310 0.0 1.0 0.00 0.00 0.00 91 1019.3
20260506100848 64 297 0.0 0.0 0.00 0.00 0.00 90 1019.4
20260506100347 64 301 0.0 0.0 0.00 0.00 0.00 91 1019.3
20260506095845 64 313 0.0 0.0 0.00 0.00 0.00 92 1019.3
20260506095342 64 320 1.0 1.0 0.00 0.00 0.00 91 1019.4
20260506094838 64 308 1.0 1.0 0.00 0.00 0.00 91 1019.3
20260506094338 63 313 0.0 1.0 0.00 0.00 0.00 92 1019.2
20260506093835 64 314 0.0 0.0 0.00 0.00 0.00 91 1019.1
20260506093332 64 313 0.0 1.0 0.00 0.00 0.00 92 1019.3
20260506092829 64 314 0.0 0.0 0.00 0.00 0.00 92 1019.0
20260506092327 64 314 0.0 0.0 0.00 0.00 0.00 92 1019.3
20260506091824 64 317 1.0 1.0 0.00 0.00 0.00 91 1019.2
20260506091322 65 312 0.0 0.0 0.00 0.00 0.00 91 1019.2
20260506090819 64 328 1.0 1.0 0.00 0.00 0.00 91 1019.2
20260506090316 64 305 0.0 0.0 0.00 0.00 0.00 91 1019.0
20260506085813 64 285 0.0 1.0 0.00 0.00 0.00 93 1018.9
20260506085309 65 332 0.0 0.0 0.00 0.00 0.00 91 1018.9
20260506084806 65 275 1.0 1.0 0.00 0.00 0.00 90 1019.0
20260506084302 64 335 1.0 2.0 0.00 0.00 0.00 91 1018.9
20260506083759 64 281 0.0 0.0 0.00 0.00 0.00 92 1018.9
20260506083257 65 281 0.0 0.0 0.00 0.00 0.00 91 1018.7
20260506082754 64 308 1.0 1.0 0.00 0.00 0.00 92 1018.7
20260506082249 64 286 1.0 1.0 0.00 0.00 0.00 91 1018.4
20260506081747 64 302 0.0 0.0 0.00 0.00 0.00 91 1018.5
20260506081244 63 336 1.0 2.0 0.00 0.00 0.00 93 1018.4
20260506080743 63 300 0.0 1.0 0.00 0.00 0.00 93 1018.4
20260506080239 63 300 0.0 0.0 0.00 0.00 0.00 92 1018.3
20260506073223 63 316 1.0 1.0 0.00 0.00 0.00 93 1018.4
20260506072719 63 308 0.0 0.0 0.00 0.00 0.00 92 1018.5
20260506072217 63 307 0.0 0.0 0.00 0.00 0.00 94 1018.6
20260506071714 63 293 0.0 0.0 0.00 0.00 0.00 95 1018.6
20260506071212 62 304 0.0 0.0 0.00 0.00 0.00 95 1018.5
20260506070709 63 324 1.0 1.0 0.00 0.00 0.00 95 1018.9
20260506070206 63 304 0.0 0.0 0.00 0.00 0.00 95 1018.6
20260506062143 63 302 0.0 0.0 0.00 0.00 0.00 95 1018.7
20260506061639 64 306 0.0 0.0 0.00 0.00 0.00 95 1018.7
20260506061137 63 320 1.0 1.0 0.00 0.00 0.00 95 1018.9
20260506060635 64 300 0.0 0.0 0.00 0.00 0.00 95 1019.1
20260506060131 64 307 0.0 0.0 0.00 0.00 0.00 94 1019.0
20260506051103 64 300 0.0 1.0 0.00 0.00 0.00 95 1019.3
20260506050602 64 302 0.0 0.0 0.00 0.00 0.00 95 1019.3
20260506045052 64 306 0.0 1.0 0.00 0.00 0.00 95 1019.5
20260506044550 64 302 0.0 0.0 0.00 0.00 0.00 94 1019.7
20260506044046 65 297 0.0 0.0 0.00 0.00 0.00 94 1019.6
20260506043543 65 304 0.0 0.0 0.00 0.00 0.00 94 1019.5